Terminal Aerodrome Forecast
Issued by NWS

Home | Current Version | Previous Version | Text Only | Print | Product List | Glossary On
Versions: 1 2 3 4 5 6 7 8 9 10 11 12 13
000
FTUS44 KSJT 282300
TAFSOA
TAF
KSOA 282320Z 2900/2924 11008KT P6SM FEW080 FEW100
     FM290100 15005KT P6SM FEW100
     FM291500 17009KT P6SM SCT120=

USA.gov is the U.S. government's official web portal to all federal, state and local government web resources and services.